Location: Cerda�ola
(41.4919°N, 2.1403°E)
Time: 02:50:14
(UTC+00:00)

YAOGAN 1 - Pass Details

Date: 29 March 2020
Orbit: 618 x 620 km, 97.9° (Epoch: 31 May)

Event Time Altitude Azimuth Distance (km) Brightness Sun altitude
Rises 18:34:15 0° 171° (S) 2,880 5.8 -4.6°
Reaches altitude 10° 18:36:26 10° 174° (S) 1,979 5.0 -5.0°
Maximum altitude 18:40:43 71° 258° (WSW) 659 2.9 -5.8°
Drops below altitude 10° 18:45:03 10° 343° (NNW) 1,996 5.6 -6.6°
Sets 18:47:16 0° 346° (NNW) 2,907 6.4 -7.0°
